South Lake Tahoe, CA

6:55 AM PDT on July 25, 2017 (GMT -0700)
Lake Tahoe

Weather History for KTVL - March, 2013

Change the Weather History Date:

Thursday, March 28, 2013

  Actual Average Record
Temperature  
Mean Temperature 44 °F 37 °F  
Max Temperature 54 °F 50 °F 66 °F (2015)
Min Temperature 33 °F 24 °F 6 °F (1975)
Degree Days  
Heating Degree Days 21 28  
Month to date heating degree days 700 833  
Since 1 July heating degree days 5718 6070  
Cooling Degree Days 0 0  
Month to date cooling degree days 0 0  
Year to date cooling degree days 0 0  
Moisture  
Dew Point 34 °F    
Average Humidity 65    
Maximum Humidity 89    
Minimum Humidity 41    
Precipitation  
Precipitation 0.24 in - 1.68 in (1963)
Month to date precipitation 1.15  
Year to date precipitation 2.05  
Sea Level Pressure  
Sea Level Pressure 30.09 in    
Wind  
Wind Speed 2 mph (South)    
Max Wind Speed 17 mph    
Max Gust Speed 25 mph    
Visibility 6 miles    
Events Fog , Rain    
T = Trace of Precipitation, MM = Missing Value Source: NWS Daily Summary

Daily Weather History Graph

Daily Weather History Graph

Search for Another Location

Airport or City:

Trip Planner

Search our weather history database for the weather conditions in past years. The results will help you decide how hot, cold, wet, or windy it might be!

Date:

Astronomy

Mar. 28, 2013 Rise Set
Actual Time 6:50 AM PDT 7:20 PM PDT
Civil Twilight 6:23 AM PDT 7:46 PM PDT
Nautical Twilight 5:52 AM PDT 8:18 PM PDT
Astronomical Twilight 5:19 AM PDT 8:50 PM PDT
Moon 9:16 PM PDT (3/28) 7:22 AM PDT (3/28)
Length of Visible Light 13h 23m
Length of Day
12h 29m
Full, 98% of the Moon is Illuminated
Mar 28
Full
Apr 2
Last Quarter
Apr 10
New
Apr 18
First Quarter
Apr 25
Full

Hourly Weather History & Observations

Time (PDT) Temp. Windchill Dew Point Humidity Pressure Visibility Wind Dir Wind Speed Gust Speed Precip Events Conditions
12:53 AM 39.0 °F - 32.0 °F 76% 29.96 in 10.0 mi Calm Calm - N/A   Mostly Cloudy
1:53 AM 39.0 °F - 30.9 °F 73% 29.96 in 10.0 mi Calm Calm - N/A   Mostly Cloudy
2:53 AM 37.9 °F - 30.9 °F 76% 29.95 in 10.0 mi Calm Calm - N/A   Mostly Cloudy
3:53 AM 37.0 °F 33.3 °F 30.0 °F 76% 29.96 in 10.0 mi Variable 4.6 mph - N/A   Scattered Clouds
4:53 AM 42.1 °F 37.7 °F 30.9 °F 65% 29.96 in 10.0 mi SSW 6.9 mph - N/A   Mostly Cloudy
5:53 AM 36.0 °F - 30.9 °F 82% 29.98 in 10.0 mi Calm Calm - N/A   Mostly Cloudy
6:53 AM 37.9 °F - 32.0 °F 79% 29.99 in 10.0 mi Calm Calm - N/A   Overcast
7:24 AM 37.4 °F - 32.0 °F 81% 30.06 in 10.0 mi Calm Calm - N/A   Overcast
7:31 AM 37.4 °F - 33.8 °F 87% 30.06 in 10.0 mi Calm Calm - 0.00 in Rain Light Rain
7:43 AM 37.4 °F - 33.8 °F 87% 30.07 in 3.0 mi Calm Calm - 0.00 in Rain Light Rain
7:45 AM 37.4 °F - 33.8 °F 87% 30.07 in 5.0 mi Calm Calm - 0.00 in Rain Light Rain
7:53 AM 37.9 °F - 33.1 °F 83% 30.02 in 10.0 mi Calm Calm - 0.00 in Rain Light Rain
8:20 AM 39.2 °F - 33.8 °F 81% 30.08 in 4.0 mi Calm Calm - 0.01 in Rain Light Rain
8:32 AM 39.2 °F - 35.6 °F 87% 30.08 in 10.0 mi Calm Calm - 0.01 in Rain Light Rain
8:53 AM 39.9 °F - 36.0 °F 86% 30.04 in 10.0 mi Calm Calm - 0.01 in   Overcast
9:53 AM 44.1 °F 40.1 °F 35.1 °F 71% 30.04 in 10.0 mi South 6.9 mph - N/A   Overcast
10:53 AM 46.0 °F 39.9 °F 34.0 °F 63% 30.05 in 10.0 mi SSW 13.8 mph 19.6 mph 0.00 in   Overcast
11:53 AM 50.0 °F - 32.0 °F 50% 30.04 in 10.0 mi South 13.8 mph 20.7 mph N/A   Scattered Clouds
12:53 PM 51.1 °F - 30.0 °F 44% 30.03 in 10.0 mi South 16.1 mph 21.9 mph N/A   Partly Cloudy
1:53 PM 52.0 °F - 28.0 °F 40% 30.02 in 10.0 mi SW 8.1 mph 20.7 mph N/A   Clear
2:53 PM 53.1 °F - 30.0 °F 41% 30.01 in 10.0 mi SSW 9.2 mph 17.3 mph N/A   Scattered Clouds
3:53 PM 53.1 °F - 30.0 °F 41% 30.01 in 10.0 mi Calm Calm - 0.00 in   Overcast
4:28 PM 46.4 °F 44.3 °F 35.6 °F 66% 30.11 in 2.5 mi Variable 4.6 mph - 0.01 in Rain Light Rain
4:34 PM 44.6 °F - 37.4 °F 76% 30.11 in 3.0 mi Calm Calm - 0.01 in Rain Light Rain
4:38 PM 44.6 °F - 37.4 °F 76% 30.11 in 6.0 mi Calm Calm - 0.01 in Rain Light Rain
4:53 PM 45.0 °F - 37.0 °F 74% 30.05 in 10.0 mi Calm Calm - 0.01 in Rain Light Rain
5:04 PM 44.6 °F 39.7 °F 37.4 °F 76% 30.14 in 2.5 mi SSW 9.2 mph 19.6 mph 0.02 in Rain Light Rain
5:13 PM 42.8 °F 40.1 °F 35.6 °F 76% 30.14 in 1.5 mi Variable 4.6 mph - 0.04 in Rain Rain
5:18 PM 42.8 °F - 35.6 °F 76% 30.13 in 3.0 mi Calm Calm - 0.04 in Rain Light Rain
5:53 PM 41.0 °F - 36.0 °F 82% 30.10 in 5.0 mi Calm Calm - 0.09 in Rain Light Rain
5:56 PM 41.0 °F - 35.6 °F 81% 30.13 in 2.5 mi Calm Calm - 0.01 in Rain Rain
6:04 PM 42.8 °F - 35.6 °F 76% 30.14 in 1.8 mi Calm Calm - 0.03 in Rain Rain
6:12 PM 41.0 °F - 37.4 °F 87% 30.14 in 2.5 mi Calm Calm - 0.04 in Rain Light Rain
6:22 PM 41.0 °F - 35.6 °F 81% 30.14 in 5.0 mi Calm Calm - 0.04 in Rain Light Rain
6:40 PM 41.0 °F 38.0 °F 35.6 °F 81% 30.15 in 3.0 mi SSE 4.6 mph - 0.06 in Rain Rain
6:53 PM 41.0 °F - 37.0 °F 86% 30.10 in 2.5 mi Calm Calm - 0.08 in Rain Rain
6:59 PM 41.0 °F - 37.4 °F 87% 30.15 in 5.0 mi Calm Calm - 0.00 in Rain Light Rain
7:09 PM 41.0 °F 39.0 °F 37.4 °F 87% 30.15 in 10.0 mi South 3.5 mph - 0.00 in Rain Light Rain
7:27 PM 41.0 °F - 37.4 °F 87% 30.15 in 4.0 mi Calm Calm - 0.00 in Rain Light Rain
7:42 PM 41.0 °F 39.0 °F 37.4 °F 87% 30.16 in 6.0 mi SSW 3.5 mph - 0.01 in Rain Light Rain
7:53 PM 42.1 °F 40.2 °F 37.0 °F 82% 30.12 in 4.0 mi SSW 3.5 mph - 0.03 in Rain Light Rain
8:05 PM 41.0 °F 38.0 °F 37.4 °F 87% 30.16 in 5.0 mi South 4.6 mph - 0.01 in Rain Light Rain
8:30 PM 39.2 °F - 35.6 °F 87% 30.16 in 10.0 mi Calm Calm - 0.02 in   Mostly Cloudy
8:53 PM 39.0 °F - 35.1 °F 86% 30.13 in 10.0 mi Calm Calm - 0.02 in   Mostly Cloudy
9:21 PM 37.4 °F - 33.8 °F 87% 30.18 in 10.0 mi Calm Calm - N/A   Mostly Cloudy
9:38 PM 37.4 °F - 33.8 °F 87% 30.18 in 3.0 mi Calm Calm - N/A   Mostly Cloudy
9:48 PM 37.4 °F - 33.8 °F 87% 30.19 in 7.0 mi Calm Calm - N/A   Scattered Clouds
9:53 PM 37.0 °F - 34.0 °F 89% 30.14 in 6.0 mi Calm Calm - N/A   Mostly Cloudy
10:09 PM 37.4 °F - 33.8 °F 87% 30.19 in 2.5 mi Calm Calm - N/A   Mostly Cloudy
10:12 PM 37.4 °F - 33.8 °F 87% 30.19 in 0.8 mi Calm Calm - N/A   Mist
10:53 PM 35.1 °F 32.2 °F 32.0 °F 89% 30.14 in 0.2 mi South 3.5 mph - N/A Fog Fog
11:53 PM 33.1 °F - 30.0 °F 89% 30.14 in 0.5 mi Calm Calm - N/A Fog Fog